This is the latest recevied weather packets stored in our database for station/object KO4DYK. If no packets are shown the sender has not sent any weather packets the latest 10 day(s).
| Time | Temp. | Humidity | Pressure | Rain* | Wind** | Luminosity | Snow |
|---|---|---|---|---|---|---|---|
| 1777844959 | 22.22° C | 39% | 1021 hPa | 0 mm | - | 398 W/m² | - |
| 1777844657 | 23.33° C | 38% | 1021.1 hPa | 0 mm | - | 427 W/m² | - |
| 1777844354 | 23.89° C | 35% | 1021.2 hPa | 0 mm | - | 448 W/m² | - |
| 1777844052 | 22.78° C | 37% | 1021.4 hPa | 0 mm | - | 432 W/m² | - |
| 1777843748 | 24.44° C | 38% | 1021.4 hPa | 0 mm | - | 462 W/m² | - |
| 1777843446 | 23.89° C | 35% | 1021.5 hPa | 0 mm | - | 479 W/m² | - |
| 1777843143 | 23.89° C | 37% | 1021.7 hPa | 0 mm | - | 493 W/m² | - |
| 1777842839 | 23.89° C | 38% | 1021.8 hPa | 0 mm | - | 499 W/m² | - |
| 1777842535 | 23.89° C | 37% | 1021.9 hPa | 0 mm | - | 491 W/m² | - |
| 1777842233 | 24.44° C | 36% | 1022 hPa | 0 mm | - | 495 W/m² | - |
| 1777841927 | 23.33° C | 38% | 1022.1 hPa | 0 mm | - | 532 W/m² | - |
| 1777841624 | 23.89° C | 38% | 1022.1 hPa | 0 mm | - | 537 W/m² | - |
| 1777841320 | 23.33° C | 38% | 1022.1 hPa | 0 mm | - | 592 W/m² | - |
| 1777841018 | 22.78° C | 36% | 1022.2 hPa | 0 mm | - | 597 W/m² | - |
| 1777840715 | 24.44° C | 39% | 1022.1 hPa | 0 mm | - | 606 W/m² | - |
| 1777840412 | 23.89° C | 37% | 1022.1 hPa | 0 mm | - | 617 W/m² | - |
| 1777840109 | 23.89° C | 38% | 1022.3 hPa | 0 mm | - | 621 W/m² | - |
| 1777839807 | 22.78° C | 39% | 1022.4 hPa | 0 mm | - | 653 W/m² | - |
| 1777839506 | 22.78° C | 37% | 1022.6 hPa | 0 mm | - | 672 W/m² | - |
| 1777839202 | 22.78° C | 37% | 1022.5 hPa | 0 mm | - | 660 W/m² | - |
| 1777838900 | 23.89° C | 38% | 1022.9 hPa | 0 mm | - | 671 W/m² | - |
| 1777838595 | 22.78° C | 38% | 1022.7 hPa | 0 mm | - | 681 W/m² | - |
| 1777838293 | 23.33° C | 37% | 1022.9 hPa | 0 mm | - | 639 W/m² | - |
| 1777837989 | 23.33° C | 37% | 1023 hPa | 0 mm | - | 632 W/m² | - |
| 1777837687 | 22.78° C | 40% | 1023.1 hPa | 0 mm | - | 670 W/m² | - |
* Rain latest hour (hover to see other rain measurements)
** Current wind speed in m/s (hover to see current wind gust speed)